TimeEST,TemperatureF,Dew PointF,Humidity,Sea Level PressureIn,VisibilityMPH,Wind Direction,Wind SpeedMPH,Gust SpeedMPH,PrecipitationIn,Events,Conditions,WindDirDegrees,DateUTC
12:14 AM,33.3,25.3,73,30.20,10.0,North,3.5,-,N/A,,Overcast,350,2012-11-05 05:14:00
12:35 AM,33.3,25.7,74,30.20,10.0,NNE,3.5,-,N/A,,Overcast,20,2012-11-05 05:35:00
12:55 AM,33.3,26.6,77,30.20,10.0,North,6.9,-,N/A,,Overcast,10,2012-11-05 05:55:00
1:14 AM,33.3,26.6,77,30.20,10.0,NNE,6.9,-,N/A,,Overcast,20,2012-11-05 06:14:00
1:35 AM,33.3,26.6,77,30.20,10.0,NNE,8.1,-,N/A,,Overcast,20,2012-11-05 06:35:00
1:55 AM,32.7,26.4,78,30.20,10.0,NNE,5.8,-,N/A,,Overcast,30,2012-11-05 06:55:00
2:14 AM,31.1,24.4,76,30.21,10.0,NNE,8.1,-,N/A,,Overcast,30,2012-11-05 07:14:00
2:35 AM,31.1,24.6,77,30.21,10.0,NNE,6.9,-,N/A,,Overcast,20,2012-11-05 07:35:00
2:55 AM,31.1,24.6,77,30.21,10.0,NE,8.1,-,N/A,,Overcast,40,2012-11-05 07:55:00
3:14 AM,31.1,24.6,77,30.21,10.0,NNE,5.8,-,N/A,,Overcast,20,2012-11-05 08:14:00
3:35 AM,31.1,24.4,76,30.21,10.0,North,8.1,-,N/A,,Overcast,10,2012-11-05 08:35:00
3:55 AM,31.1,23.9,75,30.21,10.0,North,5.8,-,N/A,,Overcast,10,2012-11-05 08:55:00
4:14 AM,30.2,23.0,75,30.21,10.0,NNE,6.9,-,N/A,,Overcast,20,2012-11-05 09:14:00
4:35 AM,29.8,21.9,72,30.21,10.0,NNE,8.1,-,N/A,,Overcast,20,2012-11-05 09:35:00
4:55 AM,29.8,21.9,72,30.21,10.0,NNE,8.1,-,N/A,,Overcast,30,2012-11-05 09:55:00
5:14 AM,29.5,21.4,72,30.21,10.0,ENE,5.8,-,N/A,,Overcast,60,2012-11-05 10:14:00
5:35 AM,29.7,21.4,71,30.22,10.0,NE,8.1,-,N/A,,Overcast,50,2012-11-05 10:35:00
5:54 AM,29.7,21.2,71,30.22,10.0,ENE,9.2,-,N/A,,Overcast,60,2012-11-05 10:54:00
6:15 AM,29.8,21.2,70,30.22,10.0,ENE,8.1,-,N/A,,Overcast,60,2012-11-05 11:15:00
6:35 AM,29.8,21.4,71,30.22,10.0,ENE,8.1,-,N/A,,Overcast,60,2012-11-05 11:35:00
6:54 AM,30.0,21.7,71,30.22,10.0,NE,5.8,-,N/A,,Overcast,50,2012-11-05 11:54:00
7:15 AM,31.1,22.1,69,30.22,10.0,ENE,9.2,-,N/A,,Overcast,70,2012-11-05 12:15:00
7:35 AM,30.6,21.9,70,30.23,10.0,ENE,8.1,-,N/A,,Overcast,70,2012-11-05 12:35:00
7:54 AM,31.1,21.9,69,30.23,10.0,NE,5.8,-,N/A,,Overcast,40,2012-11-05 12:54:00
8:15 AM,31.1,21.2,67,30.24,10.0,NE,4.6,-,N/A,,Overcast,40,2012-11-05 13:15:00
8:35 AM,31.1,20.8,66,30.24,10.0,North,5.8,-,N/A,,Overcast,10,2012-11-05 13:35:00
8:54 AM,31.1,20.1,64,30.24,10.0,NNE,5.8,-,N/A,,Overcast,30,2012-11-05 13:54:00
9:15 AM,31.1,19.2,61,30.24,10.0,NNE,8.1,-,N/A,,Overcast,30,2012-11-05 14:15:00
9:35 AM,31.6,19.4,61,30.24,10.0,ENE,5.8,-,N/A,,Overcast,60,2012-11-05 14:35:00
9:54 AM,31.6,18.7,59,30.24,10.0,NE,9.2,-,N/A,,Overcast,40,2012-11-05 14:54:00
10:15 AM,33.3,20.1,59,30.24,10.0,ENE,6.9,-,N/A,,Overcast,70,2012-11-05 15:15:00
10:35 AM,33.3,20.1,59,30.25,10.0,East,3.5,-,N/A,,Overcast,90,2012-11-05 15:35:00
10:54 AM,33.3,20.5,59,30.25,10.0,NE,5.8,-,N/A,,Overcast,50,2012-11-05 15:54:00
11:15 AM,33.3,20.8,60,30.24,10.0,East,4.6,-,N/A,,Overcast,90,2012-11-05 16:15:00
11:35 AM,33.3,20.8,60,30.24,10.0,East,6.9,-,N/A,,Overcast,100,2012-11-05 16:35:00
11:54 AM,33.3,21.0,61,30.24,10.0,ESE,4.6,-,N/A,,Overcast,110,2012-11-05 16:54:00
12:15 PM,33.3,20.5,59,30.24,10.0,ESE,4.6,-,N/A,,Overcast,110,2012-11-05 17:15:00
12:35 PM,33.3,20.3,59,30.23,10.0,ESE,5.8,-,N/A,,Overcast,120,2012-11-05 17:35:00
12:54 PM,33.3,20.1,59,30.22,10.0,East,6.9,-,N/A,,Overcast,90,2012-11-05 17:54:00
1:15 PM,33.3,20.1,59,30.21,10.0,Calm,Calm,-,N/A,,Overcast,0,2012-11-05 18:15:00
1:34 PM,33.3,20.3,59,30.21,10.0,ENE,4.6,-,N/A,,Overcast,70,2012-11-05 18:34:00
1:54 PM,33.3,20.3,59,30.21,10.0,Calm,Calm,-,N/A,,Overcast,0,2012-11-05 18:54:00
2:15 PM,33.3,19.6,57,30.20,10.0,NE,4.6,-,N/A,,Overcast,50,2012-11-05 19:15:00
2:35 PM,33.3,19.8,58,30.19,10.0,NE,5.8,-,N/A,,Overcast,50,2012-11-05 19:35:00
2:54 PM,33.3,19.6,57,30.20,10.0,NE,3.5,-,N/A,,Overcast,40,2012-11-05 19:54:00
3:15 PM,33.3,19.8,58,30.20,10.0,Calm,Calm,-,N/A,,Overcast,0,2012-11-05 20:15:00
3:34 PM,33.3,19.8,58,30.19,10.0,Calm,Calm,-,N/A,,Overcast,0,2012-11-05 20:34:00
3:55 PM,33.3,19.6,57,30.20,10.0,ESE,4.6,-,N/A,,Overcast,120,2012-11-05 20:55:00
4:15 PM,33.3,19.8,58,30.19,10.0,Calm,Calm,-,N/A,,Overcast,0,2012-11-05 21:15:00
4:34 PM,33.3,20.1,59,30.19,10.0,East,3.5,-,N/A,,Overcast,100,2012-11-05 21:34:00
4:55 PM,33.3,20.3,59,30.18,10.0,ESE,4.6,-,N/A,,Overcast,120,2012-11-05 21:55:00
5:15 PM,33.3,19.9,58,30.18,10.0,Calm,Calm,-,N/A,,Overcast,0,2012-11-05 22:15:00
5:34 PM,33.3,19.9,58,30.18,10.0,Calm,Calm,-,N/A,,Overcast,0,2012-11-05 22:34:00
5:55 PM,33.3,21.0,61,30.18,10.0,ENE,4.6,-,N/A,,Overcast,60,2012-11-05 22:55:00
6:15 PM,32.5,20.3,61,30.18,10.0,ENE,3.5,-,N/A,,Overcast,70,2012-11-05 23:15:00
6:34 PM,31.1,19.8,63,30.18,10.0,ENE,3.5,-,N/A,,Mostly Cloudy,60,2012-11-05 23:34:00
6:55 PM,29.1,18.5,65,30.18,10.0,NE,3.5,-,N/A,,Clear,50,2012-11-05 23:55:00
7:15 PM,28.4,18.7,67,30.19,10.0,NE,3.5,-,N/A,,Clear,40,2012-11-06 00:15:00
7:34 PM,28.4,18.5,66,30.18,10.0,ENE,3.5,-,N/A,,Clear,60,2012-11-06 00:34:00
7:55 PM,28.4,19.4,69,30.18,10.0,ENE,3.5,-,N/A,,Mostly Cloudy,60,2012-11-06 00:55:00
8:14 PM,28.4,20.1,71,30.17,10.0,ENE,3.5,-,N/A,,Overcast,60,2012-11-06 01:14:00
8:35 PM,28.4,19.9,71,30.17,10.0,East,4.6,-,N/A,,Overcast,80,2012-11-06 01:35:00
8:55 PM,28.4,19.8,70,30.16,10.0,East,3.5,-,N/A,,Overcast,80,2012-11-06 01:55:00
9:14 PM,28.4,19.9,71,30.17,10.0,ENE,3.5,-,N/A,,Overcast,60,2012-11-06 02:14:00
9:35 PM,28.8,19.8,69,30.16,10.0,East,4.6,-,N/A,,Overcast,80,2012-11-06 02:35:00
9:55 PM,28.9,19.4,68,30.16,10.0,East,3.5,-,N/A,,Overcast,80,2012-11-06 02:55:00
10:14 PM,28.6,19.6,69,30.15,10.0,East,3.5,-,N/A,,Overcast,100,2012-11-06 03:14:00
10:35 PM,28.4,19.4,69,30.15,10.0,East,4.6,-,N/A,,Overcast,90,2012-11-06 03:35:00
10:55 PM,28.4,19.4,69,30.14,10.0,Calm,Calm,-,N/A,,Overcast,0,2012-11-06 03:55:00
11:14 PM,28.4,20.3,72,30.14,10.0,Calm,Calm,-,N/A,,Scattered Clouds,0,2012-11-06 04:14:00
11:35 PM,27.9,20.5,74,30.13,10.0,ENE,3.5,-,N/A,,Clear,60,2012-11-06 04:35:00
11:55 PM,27.0,19.9,75,30.13,10.0,Calm,Calm,-,N/A,,Clear,0,2012-11-06 04:55:00